Terminal Aerodrome Forecast
Issued by NWS Duluth, MN

Home | Current Version | Previous Version | Text Only | Print | Product List | Glossary On
Versions: 1 2 3 4 5 6 7 8 9 10 11 12 13 14 15
000
FTUS43 KDLH 232300
TAFINL
TAF
KINL 232335Z 2400/2424 26007KT P6SM SKC
     FM242000 13004KT P6SM SCT090 BKN150=

USA.gov is the U.S. government's official web portal to all federal, state and local government web resources and services.